Location: Praha
(50.0830°N, 14.4670°E)
Time: 03:19:30
(UTC+02:00)

ISS - Pass Details

Date: 15 May 2022
Orbit: 414 x 421 km, 51.6° (Epoch: 22 May)

Event Time Altitude Azimuth Distance (km) Brightness Sun altitude
Rises 03:19:58 0° 287° (WNW) 2,356 -0.1 -14.3°
Reaches altitude 10° 03:22:09 10° 279° (W) 1,490 -1.2 -14.1°
Maximum altitude 03:25:16 38° 210° (SSW) 655 -3.3 -13.9°
Drops below altitude 10° 03:28:23 10° 141° (SE) 1,483 -1.1 -13.6°
Sets 03:30:33 0° 133° (SE) 2,343 0.0 -13.4°
